Weather History for Rawlins, WY

Change the Weather History Date:

Saturday, July 27, 2013

  Actual Average Record
Temperature  
Mean Temperature 67 °F 68 °F  
Max Temperature 83 °F 84 °F 93 °F (2000)
Min Temperature 50 °F 52 °F 40 °F (2005)
Degree Days  
Heating Degree Days 0 1  
Month to date heating degree days 0 34  
Since 1 June heating degree days 101 224  
Since 1 July heating degree days 0 34  
Cooling Degree Days 2 4  
Month to date cooling degree days 143 86  
Year to date cooling degree days 191 105  
Since 1 June cooling degree days 190 105  
Growing Degree Days 16 (Base 50)    
Moisture  
Dew Point 43 °F    
Average Humidity 48    
Maximum Humidity 80    
Minimum Humidity 15    
Precipitation  
Precipitation 0.01 in 0.03 in 0.42 in (2009)
Month to date precipitation 1.11 0.72  
Year to date precipitation 3.21 5.67  
Sea Level Pressure  
Sea Level Pressure 29.92 in    
Wind  
Wind Speed 8 mph (North)    
Max Wind Speed 25 mph    
Max Gust Speed 36 mph    
Visibility 10 miles    
Events Rain    
T = Trace of Precipitation, MM = Missing Value Source: NWS Daily Summary

Daily Weather History Graph

Daily Weather History Graph

Search for Another Location

Airport:

Trip Planner

Search our weather history database for the weather conditions in past years. The results will help you decide how hot, cold, wet, or windy it might be!

Date:

Astronomy

Jul. 27, 2013 Rise Set
Actual Time 5:58 AM MDT 8:31 PM MDT
Civil Twilight 5:26 AM MDT 9:03 PM MDT
Nautical Twilight 4:46 AM MDT 9:43 PM MDT
Astronomical Twilight 4:01 AM MDT 10:28 PM MDT
Moon 11:14 PM MDT (7/27) 11:47 AM MDT (7/27)
Length of Visible Light 15h 37m
Length of Day
14h 33m
Waning Gibbous, 70% of the Moon is Illuminated
Jul 27
Waning Gibbous
Jul 29
Last Quarter
Aug 6
New
Aug 14
First Quarter
Aug 20
Full

Hourly Weather History & Observations

Time (MDT) Temp. Dew Point Humidity Pressure Visibility Wind Dir Wind Speed Gust Speed Precip Events Conditions
12:53 AM 61.0 °F 43.0 °F 52% 29.96 in 10.0 mi SW 3.5 mph - N/A   Clear
1:53 AM 55.9 °F 46.0 °F 69% 29.96 in 10.0 mi Calm Calm - N/A   Clear
2:53 AM 55.9 °F 44.1 °F 64% 29.94 in 10.0 mi North 5.8 mph - N/A   Clear
3:53 AM 54.0 °F 45.0 °F 72% 29.93 in 10.0 mi NNE 5.8 mph - N/A   Clear
4:53 AM 51.1 °F 45.0 °F 80% 29.94 in 10.0 mi NNW 4.6 mph - N/A   Clear
5:53 AM 51.1 °F 44.1 °F 77% 29.96 in 10.0 mi NNE 3.5 mph - N/A   Clear
6:53 AM 55.0 °F 46.0 °F 72% 29.95 in 10.0 mi Calm Calm - N/A   Clear
7:53 AM 61.0 °F 43.0 °F 52% 29.93 in 10.0 mi ESE 3.5 mph - N/A   Clear
8:53 AM 64.9 °F 42.1 °F 43% 29.93 in 10.0 mi Calm Calm - N/A   Clear
9:53 AM 70.0 °F 41.0 °F 35% 29.93 in 10.0 mi Variable 3.5 mph - N/A   Clear
10:53 AM 77.0 °F 37.0 °F 24% 29.90 in 10.0 mi Variable 4.6 mph - N/A   Clear
11:53 AM 79.0 °F 34.0 °F 20% 29.88 in 10.0 mi Variable 3.5 mph - N/A   Clear
12:53 PM 82.0 °F 30.0 °F 15% 29.85 in 10.0 mi WNW 6.9 mph - N/A   Clear
1:53 PM 81.0 °F 30.9 °F 16% 29.85 in 10.0 mi WNW 9.2 mph - N/A   Partly Cloudy
2:53 PM 78.1 °F 33.1 °F 19% 29.88 in 10.0 mi WSW 21.9 mph 27.6 mph N/A   Overcast
3:53 PM 75.9 °F 33.1 °F 21% 29.89 in 10.0 mi WNW 10.4 mph - N/A   Mostly Cloudy
4:53 PM 70.0 °F 39.9 °F 33% 29.92 in 10.0 mi NNW 24.2 mph 34.5 mph N/A   Overcast
5:53 PM 66.9 °F 43.0 °F 42% 29.95 in 10.0 mi NNW 24.2 mph 28.8 mph N/A   Overcast
6:53 PM 62.1 °F 48.0 °F 60% 29.95 in 10.0 mi North 17.3 mph 25.3 mph 0.00 in Rain Light Rain
7:53 PM 59.0 °F 51.1 °F 75% 29.96 in 10.0 mi NNW 9.2 mph - 0.00 in Rain Light Rain
8:53 PM 57.9 °F 52.0 °F 81% 29.96 in 10.0 mi East 8.1 mph - 0.00 in   Overcast
9:53 PM 57.0 °F 51.1 °F 81% 29.94 in 10.0 mi East 5.8 mph - 0.01 in   Overcast
10:53 PM 57.9 °F 52.0 °F 81% 29.90 in 10.0 mi East 4.6 mph - N/A   Overcast
11:53 PM 57.9 °F 52.0 °F 81% 29.87 in 10.0 mi East 4.6 mph - N/A   Overcast